EW9119 Weather Reports


time (UTC)temp
C
wind
direction
speed
KPH
gust
KPH
rain 1hr
cm
rain 24hr
cm
rain mn
cm
humidity
%
barometer
mb
20260506171522 20 142 0.0 0.0 0.00 0.00 0.00 37 1011.3
20260506170020 19 5 0.0 0.0 0.00 0.00 0.00 32 1011.5
20260506164515 19 167 0.0 0.0 0.00 0.00 0.00 38 1011.7
20260506163030 19 157 0.0 0.0 0.00 0.00 0.00 36 1011.5
20260506161511 19 5 0.0 0.0 0.00 0.00 0.00 34 1011.4
20260506160018 18 173 0.0 0.0 0.00 0.00 0.00 47 1011.3
20260506154509 18 220 0.0 0.0 0.00 0.00 0.00 37 1010.8
20260506153008 18 12 0.0 0.0 0.00 0.00 0.00 39 1010.9
20260506151505 18 340 0.0 0.0 0.00 0.00 0.00 49 1011.1
20260506150007 18 73 0.0 0.0 0.00 0.00 0.00 57 1011.0
20260506144502 18 70 0.0 0.0 0.00 0.00 0.00 58 1010.6
20260506143002 18 311 0.0 0.0 0.00 0.00 0.00 59 1010.9
20260506141501 18 299 0.0 0.0 0.00 0.00 0.00 60 1010.8
20260506140001 18 18 0.0 0.0 0.00 0.00 0.00 57 1010.6
20260506134600 17 321 0.0 0.0 0.00 0.00 0.00 56 1010.6
20260506133100 17 250 0.0 0.0 0.00 0.00 0.00 54 1010.9
20260506131604 17 109 0.0 0.0 0.00 0.00 0.00 54 1010.9
20260506124559 17 192 0.0 0.0 0.00 0.00 0.00 54 1010.7
20260506123058 17 360 0.0 1.6 0.00 0.00 0.00 54 1011.1
20260506121557 16 355 0.0 0.0 0.00 0.00 0.00 53 1011.1
20260506120100 16 351 0.0 1.6 0.00 0.00 0.00 53 1010.7
20260506114605 16 108 0.0 1.6 0.00 0.00 0.00 51 1010.6
20260506113055 16 34 0.0 0.0 0.00 0.00 0.00 51 1010.4
20260506111655 16 5 0.0 0.0 0.00 0.00 0.00 52 1010.4
20260506110101 16 5 0.0 0.0 0.00 0.00 0.00 53 1010.2
20260506104552 16 17 0.0 1.6 0.00 0.00 0.00 54 1009.8
20260506103051 16 277 0.0 0.0 0.00 0.00 0.00 54 1010.0
20260506101601 16 309 0.0 1.6 0.00 0.00 0.00 53 1010.0
20260506100050 16 290 0.0 0.0 0.00 0.00 0.00 52 1009.9
20260506094607 16 36 0.0 0.0 0.00 0.00 0.00 52 1009.9
20260506093053 16 69 0.0 0.0 0.00 0.00 0.00 52 1010.1
20260506091547 16 13 0.0 0.0 0.00 0.00 0.00 53 1010.2
20260506090046 16 52 0.0 0.0 0.00 0.00 0.00 52 1010.2
20260506084546 16 80 0.0 0.0 0.00 0.00 0.00 54 1010.5
20260506083042 16 13 0.0 0.0 0.00 0.00 0.00 55 1010.5
20260506081541 17 19 0.0 0.0 0.00 0.00 0.00 55 1010.6
20260506073044 17 141 0.0 0.0 0.00 0.00 0.00 58 1010.5
20260506071539 17 98 0.0 0.0 0.00 0.00 0.00 59 1010.4
20260506061535 17 101 0.0 0.0 0.00 0.00 0.00 64 1010.8
20260506044527 18 153 0.0 0.0 0.00 0.00 0.00 61 1011.2
20260506043020 18 67 0.0 0.0 0.00 0.00 0.00 60 1011.1
20260506041520 18 144 0.0 0.0 0.00 0.00 0.00 60 1011.3
20260506040038 18 140 0.0 0.0 0.00 0.00 0.00 60 1011.1
20260506034517 18 102 0.0 0.0 0.00 0.00 0.00 59 1011.0
20260506033016 18 103 0.0 0.0 0.00 0.00 0.00 58 1011.0
20260506031530 18 32 0.0 0.0 0.00 0.00 0.00 59 1011.0
20260506030015 18 14 0.0 0.0 0.00 0.00 0.00 59 1011.2
20260506024519 18 136 0.0 0.0 0.00 0.00 0.00 59 1011.3
20260506023014 18 143 0.0 0.0 0.00 0.00 0.00 58 1011.4
20260506021514 18 144 0.0 0.0 0.00 0.00 0.00 57 1011.4
20260506020017 19 144 0.0 0.0 0.00 0.00 0.00 55 1011.5
20260506014514 19 145 0.0 0.0 0.00 0.00 0.00 54 1011.4
20260506013011 20 146 0.0 0.0 0.00 0.00 0.00 53 1011.2
20260506011512 20 146 0.0 0.0 0.00 0.00 0.00 51 1011.2
20260506010013 21 146 0.0 0.0 0.00 0.00 0.00 49 1011.0
20260506004521 21 146 0.0 0.0 0.00 0.00 0.00 48 1011.0
20260506003013 21 108 0.0 0.0 0.00 0.00 0.00 46 1010.8
20260506001510 22 283 0.0 0.0 0.00 0.00 0.00 45 1010.7
20260506000009 22 263 0.0 0.0 0.00 0.00 0.00 44 1010.7
20260505234509 22 89 0.0 0.0 0.00 0.00 0.00 44 1010.4
20260505233008 23 136 0.0 3.2 0.00 0.00 0.00 43 1010.3
20260505231508 23 88 0.0 0.0 0.00 0.00 0.00 43 1010.3
20260505230009 23 347 0.0 1.6 0.00 0.00 0.00 42 1010.1
20260505224506 24 141 0.0 3.2 0.00 0.00 0.00 41 1010.2
20260505223005 24 117 0.0 0.0 0.00 0.00 0.00 41 1010.2
20260505221507 25 325 0.0 1.6 0.00 0.00 0.00 40 1010.5
20260505220005 25 84 0.0 3.2 0.00 0.00 0.00 41 1010.6
20260505214501 25 98 0.0 0.0 0.00 0.00 0.00 40 1010.6
20260505213001 25 71 0.0 0.0 0.00 0.00 0.00 39 1010.6
20260505211611 25 107 0.0 0.0 0.00 0.00 0.00 40 1010.7
20260505210103 25 50 0.0 0.0 0.00 0.00 0.00 38 1010.8
20260505204602 25 198 0.0 0.0 0.00 0.00 0.00 37 1010.8
20260505203059 25 82 0.0 0.0 0.00 0.00 0.00 38 1010.8
20260505201600 25 150 0.0 0.0 0.00 0.00 0.00 38 1010.9
20260505200055 25 17 0.0 0.0 0.00 0.00 0.00 37 1011.0
20260505194607 25 107 0.0 0.0 0.00 0.00 0.00 38 1011.3
20260505193051 25 346 0.0 0.0 0.00 0.00 0.00 38 1011.5
20260505191550 25 115 0.0 0.0 0.00 0.00 0.00 38 1011.8
20260505190048 26 137 0.0 0.0 0.00 0.00 0.00 38 1011.9
20260505184547 26 324 0.0 0.0 0.00 0.00 0.00 38 1012.2
20260505183047 26 44 0.0 0.0 0.00 0.00 0.00 40 1012.5
20260505181552 25 9 0.0 0.0 0.00 0.00 0.00 39 1012.5
20260505180045 25 160 0.0 0.0 0.00 0.00 0.00 40 1012.5
20260505174553 26 316 0.0 0.0 0.00 0.00 0.00 40 1012.7
20260505173044 26 302 0.0 0.0 0.00 0.00 0.00 42 1012.9